Time,TemperatureF,DewpointF,PressureIn,WindDirection,WindDirectionDegrees,WindSpeedMPH,WindSpeedGustMPH,Humidity,HourlyPrecipIn,Conditions,Clouds,dailyrainin,SoftwareType,DateUTC
2013-03-24 00:09:00,50.5,46.2,29.99,North,350,0.0,3.0,85,0.00,,,0.00,Wunderground v.1.15,2013-03-24 07:09:00,
2013-03-24 00:19:00,50.5,46.2,29.99,North,350,1.0,1.0,85,0.00,,,0.00,Wunderground v.1.15,2013-03-24 07:19:00,
2013-03-24 00:29:00,50.2,45.9,29.99,North,350,2.0,2.0,85,0.00,,,0.00,Wunderground v.1.15,2013-03-24 07:29:00,
2013-03-24 00:39:00,50.2,45.9,29.99,North,350,1.0,3.0,85,0.00,,,0.00,Wunderground v.1.15,2013-03-24 07:39:00,
2013-03-24 00:49:00,49.8,45.5,29.98,North,350,1.0,1.0,85,0.00,,,0.00,Wunderground v.1.15,2013-03-24 07:49:00,
2013-03-24 00:59:00,49.6,45.6,29.98,North,350,0.0,2.0,86,0.00,,,0.00,Wunderground v.1.15,2013-03-24 07:59:00,
2013-03-24 01:09:00,49.5,45.5,29.98,North,350,0.0,1.0,86,0.00,,,0.00,Wunderground v.1.15,2013-03-24 08:09:00,
2013-03-24 01:19:00,49.4,45.4,29.99,North,350,0.0,3.0,86,0.00,,,0.00,Wunderground v.1.15,2013-03-24 08:19:00,
2013-03-24 01:29:00,49.4,45.4,29.99,North,350,0.0,3.0,86,0.00,,,0.00,Wunderground v.1.15,2013-03-24 08:29:00,
2013-03-24 01:39:00,49.4,45.7,29.99,North,350,0.0,1.0,87,0.00,,,0.00,Wunderground v.1.15,2013-03-24 08:39:00,
2013-03-24 01:49:00,49.5,45.8,29.99,North,350,0.0,0.0,87,0.00,,,0.00,Wunderground v.1.15,2013-03-24 08:49:00,
2013-03-24 01:59:00,49.6,45.9,29.99,North,350,0.0,1.0,87,0.00,,,0.00,Wunderground v.1.15,2013-03-24 08:59:00,
2013-03-24 02:09:00,49.8,46.1,29.98,North,350,1.0,1.0,87,0.00,,,0.00,Wunderground v.1.15,2013-03-24 09:09:00,
2013-03-24 02:19:00,50.1,46.4,29.99,North,350,2.0,2.0,87,0.00,,,0.00,Wunderground v.1.15,2013-03-24 09:19:00,
2013-03-24 02:29:00,50.4,46.7,29.99,North,350,1.0,4.0,87,0.00,,,0.00,Wunderground v.1.15,2013-03-24 09:29:00,
2013-03-24 02:39:00,50.2,46.2,29.99,North,350,2.0,3.0,86,0.00,,,0.00,Wunderground v.1.15,2013-03-24 09:39:00,
2013-03-24 02:49:00,50.2,46.2,29.98,North,350,3.0,3.0,86,0.00,,,0.00,Wunderground v.1.15,2013-03-24 09:49:00,
2013-03-24 02:59:00,50.1,46.1,29.98,North,350,2.0,2.0,86,0.00,,,0.00,Wunderground v.1.15,2013-03-24 09:59:00,
2013-03-24 03:09:00,49.8,45.8,29.98,North,350,1.0,3.0,86,0.00,,,0.00,Wunderground v.1.15,2013-03-24 10:09:00,
2013-03-24 03:19:00,49.4,45.1,29.98,North,351,3.0,3.0,85,0.00,,,0.00,Wunderground v.1.15,2013-03-24 10:19:00,
2013-03-24 03:29:00,48.2,43.9,29.98,North,350,2.0,5.0,85,0.00,,,0.00,Wunderground v.1.15,2013-03-24 10:29:00,
2013-03-24 03:39:00,47.3,43.0,29.97,NE,39,4.0,5.0,85,0.00,,,0.00,Wunderground v.1.15,2013-03-24 10:39:00,
2013-03-24 03:49:00,46.8,42.5,29.98,NE,40,3.0,3.0,85,0.00,,,0.00,Wunderground v.1.15,2013-03-24 10:49:00,
2013-03-24 03:59:00,46.7,42.7,29.98,NE,39,0.0,0.0,86,0.00,,,0.00,Wunderground v.1.15,2013-03-24 10:59:00,
2013-03-24 04:09:00,46.7,42.7,29.97,NE,39,2.0,3.0,86,0.00,,,0.00,Wunderground v.1.15,2013-03-24 11:09:00,
2013-03-24 04:19:00,46.5,42.5,29.97,NE,39,3.0,3.0,86,0.00,,,0.00,Wunderground v.1.15,2013-03-24 11:19:00,
2013-03-24 04:29:00,46.5,42.5,29.97,NE,39,1.0,4.0,86,0.00,,,0.00,Wunderground v.1.15,2013-03-24 11:29:00,
2013-03-24 04:39:00,46.5,42.8,29.97,NE,39,1.0,1.0,87,0.00,,,0.00,Wunderground v.1.15,2013-03-24 11:39:00,
2013-03-24 04:49:00,46.4,42.7,29.98,NE,39,0.0,3.0,87,0.00,,,0.00,Wunderground v.1.15,2013-03-24 11:49:00,
2013-03-24 04:59:00,46.4,42.7,29.98,NE,39,0.0,1.0,87,0.00,,,0.00,Wunderground v.1.15,2013-03-24 11:59:00,
2013-03-24 05:09:00,47.0,43.6,29.98,NE,39,0.0,0.0,88,0.00,,,0.00,Wunderground v.1.15,2013-03-24 12:09:00,
2013-03-24 05:19:00,46.7,43.0,29.98,NE,39,0.0,1.0,87,0.00,,,0.00,Wunderground v.1.15,2013-03-24 12:19:00,
2013-03-24 05:29:00,46.4,43.0,29.98,NE,39,0.0,1.0,88,0.00,,,0.00,Wunderground v.1.15,2013-03-24 12:29:00,
2013-03-24 05:39:00,46.2,42.8,29.99,NE,39,0.0,1.0,88,0.00,,,0.00,Wunderground v.1.15,2013-03-24 12:39:00,
2013-03-24 05:49:00,46.1,42.7,29.99,NE,39,0.0,1.0,88,0.00,,,0.00,Wunderground v.1.15,2013-03-24 12:49:00,
2013-03-24 05:59:00,46.0,42.6,29.99,NE,39,0.0,1.0,88,0.00,,,0.00,Wunderground v.1.15,2013-03-24 12:59:00,
2013-03-24 06:09:00,45.7,42.3,29.99,NE,39,0.0,1.0,88,0.00,,,0.00,Wunderground v.1.15,2013-03-24 13:09:00,
2013-03-24 06:19:00,45.4,41.8,29.99,NE,39,0.0,1.0,87,0.00,,,0.00,Wunderground v.1.15,2013-03-24 13:19:00,
2013-03-24 06:29:00,44.9,41.3,29.99,NE,39,1.0,2.0,87,0.00,,,0.00,Wunderground v.1.15,2013-03-24 13:29:00,
2013-03-24 06:39:00,45.1,41.8,29.99,NE,39,2.0,3.0,88,0.00,,,0.00,Wunderground v.1.15,2013-03-24 13:39:00,
2013-03-24 06:49:00,45.1,41.8,29.99,NE,39,2.0,2.0,88,0.00,,,0.00,Wunderground v.1.15,2013-03-24 13:49:00,
2013-03-24 06:59:00,44.8,41.5,29.99,NE,40,1.0,3.0,88,0.00,,,0.00,Wunderground v.1.15,2013-03-24 13:59:00,
2013-03-24 07:09:00,44.8,41.2,30.00,NE,39,1.0,1.0,87,0.00,,,0.00,Wunderground v.1.15,2013-03-24 14:09:00,
2013-03-24 07:19:00,44.8,41.2,30.00,NE,39,0.0,3.0,87,0.00,,,0.00,Wunderground v.1.15,2013-03-24 14:19:00,
2013-03-24 07:29:00,45.4,41.8,30.00,NNE,32,0.0,2.0,87,0.00,,,0.00,Wunderground v.1.15,2013-03-24 14:29:00,
2013-03-24 07:39:00,46.0,42.3,30.00,NNE,32,0.0,2.0,87,0.00,,,0.00,Wunderground v.1.15,2013-03-24 14:39:00,
2013-03-24 07:49:00,46.2,42.2,30.01,NNE,32,2.0,2.0,86,0.00,,,0.00,Wunderground v.1.15,2013-03-24 14:49:00,
2013-03-24 08:09:00,47.6,43.3,30.01,NNE,32,1.0,1.0,85,0.00,,,0.00,Wunderground v.1.15,2013-03-24 15:09:00,
2013-03-24 08:19:00,48.6,44.0,30.02,NNE,32,1.0,4.0,84,0.00,,,0.00,Wunderground v.1.15,2013-03-24 15:19:00,
2013-03-24 08:29:00,49.9,44.6,30.02,NNE,32,2.0,2.0,82,0.00,,,0.00,Wunderground v.1.15,2013-03-24 15:29:00,
2013-03-24 08:39:00,51.1,45.1,30.02,NNE,32,1.0,4.0,80,0.00,,,0.00,Wunderground v.1.15,2013-03-24 15:39:00,
2013-03-24 08:49:00,52.5,44.8,30.02,NNE,32,2.0,2.0,75,0.00,,,0.00,Wunderground v.1.15,2013-03-24 15:49:00,
2013-03-24 08:59:00,54.5,45.3,30.02,NNE,32,1.0,1.0,71,0.00,,,0.00,Wunderground v.1.15,2013-03-24 15:59:00,
2013-03-24 09:09:00,56.6,46.5,30.02,NNE,32,1.0,4.0,69,0.00,,,0.00,Wunderground v.1.15,2013-03-24 16:09:00,
2013-03-24 09:19:00,57.8,46.1,30.02,NNE,32,1.0,4.0,65,0.00,,,0.00,Wunderground v.1.15,2013-03-24 16:19:00,
2013-03-24 09:29:00,58.3,46.6,30.02,NNE,32,0.0,4.0,65,0.00,,,0.00,Wunderground v.1.15,2013-03-24 16:29:00,
2013-03-24 09:39:00,59.8,47.2,30.02,NNE,32,0.0,1.0,63,0.00,,,0.00,Wunderground v.1.15,2013-03-24 16:39:00,
2013-03-24 09:49:00,60.5,47.0,30.02,NNE,32,0.0,1.0,61,0.00,,,0.00,Wunderground v.1.15,2013-03-24 16:49:00,
2013-03-24 09:59:00,61.2,47.2,30.02,NNE,32,0.0,3.0,60,0.00,,,0.00,Wunderground v.1.15,2013-03-24 16:59:00,
2013-03-24 10:09:00,62.0,47.5,30.02,NNE,32,1.0,1.0,59,0.00,,,0.00,Wunderground v.1.15,2013-03-24 17:09:00,
2013-03-24 10:19:00,61.8,46.4,30.02,NNE,32,1.0,1.0,57,0.00,,,0.00,Wunderground v.1.15,2013-03-24 17:19:00,
2013-03-24 10:29:00,62.6,46.7,30.02,NNE,32,2.0,5.0,56,0.00,,,0.00,Wunderground v.1.15,2013-03-24 17:29:00,
2013-03-24 10:39:00,63.2,45.8,30.01,NNE,26,3.0,3.0,53,0.00,,,0.00,Wunderground v.1.15,2013-03-24 17:39:00,
2013-03-24 10:49:00,63.7,44.2,30.00,NNE,22,2.0,2.0,49,0.00,,,0.00,Wunderground v.1.15,2013-03-24 17:49:00,
2013-03-24 10:59:00,64.7,44.5,30.00,NNE,19,2.0,6.0,48,0.00,,,0.00,Wunderground v.1.15,2013-03-24 17:59:00,
2013-03-24 11:09:00,65.5,45.3,30.00,WSW,248,3.0,6.0,48,0.00,,,0.00,Wunderground v.1.15,2013-03-24 18:09:00,
2013-03-24 11:19:00,66.6,44.0,30.00,WNW,285,4.0,9.0,44,0.00,,,0.00,Wunderground v.1.15,2013-03-24 18:19:00,
2013-03-24 11:29:00,66.6,45.7,30.00,WNW,297,4.0,4.0,47,0.00,,,0.00,Wunderground v.1.15,2013-03-24 18:29:00,
2013-03-24 11:39:00,67.1,45.6,30.00,SW,221,4.0,4.0,46,0.00,,,0.00,Wunderground v.1.15,2013-03-24 18:39:00,
2013-03-24 11:49:00,67.3,50.1,29.99,SW,217,5.0,11.0,54,0.00,,,0.00,Wunderground v.1.15,2013-03-24 18:49:00,
2013-03-24 11:59:00,66.9,49.7,29.99,West,265,7.0,8.0,54,0.00,,,0.00,Wunderground v.1.15,2013-03-24 18:59:00,
2013-03-24 12:09:00,66.8,50.6,29.99,WSW,244,6.0,8.0,56,0.00,,,0.00,Wunderground v.1.15,2013-03-24 19:09:00,
2013-03-24 12:19:00,66.6,50.4,29.99,SW,234,7.0,12.0,56,0.00,,,0.00,Wunderground v.1.15,2013-03-24 19:19:00,
2013-03-24 12:29:00,66.3,50.6,29.99,West,259,7.0,7.0,57,0.00,,,0.00,Wunderground v.1.15,2013-03-24 19:29:00,
2013-03-24 12:39:00,66.1,50.9,29.98,West,262,6.0,14.0,58,0.00,,,0.00,Wunderground v.1.15,2013-03-24 19:39:00,
2013-03-24 12:49:00,66.8,51.1,29.98,West,280,6.0,11.0,57,0.00,,,0.00,Wunderground v.1.15,2013-03-24 19:49:00,
2013-03-24 12:59:00,67.3,51.1,29.98,SW,234,5.0,11.0,56,0.00,,,0.00,Wunderground v.1.15,2013-03-24 19:59:00,
2013-03-24 13:09:00,67.1,50.9,29.97,SW,232,7.0,12.0,56,0.00,,,0.00,Wunderground v.1.15,2013-03-24 20:09:00,
2013-03-24 13:19:00,67.1,49.9,29.97,WSW,250,7.0,7.0,54,0.00,,,0.00,Wunderground v.1.15,2013-03-24 20:19:00,
2013-03-24 13:29:00,66.9,51.2,29.97,WSW,253,8.0,13.0,57,0.00,,,0.00,Wunderground v.1.15,2013-03-24 20:29:00,
2013-03-24 13:39:00,66.8,49.6,29.97,WNW,292,7.0,7.0,54,0.00,,,0.00,Wunderground v.1.15,2013-03-24 20:39:00,
2013-03-24 13:49:00,66.9,49.2,29.97,WSW,245,7.0,7.0,53,0.00,,,0.00,Wunderground v.1.15,2013-03-24 20:49:00,
2013-03-24 13:59:00,66.6,49.4,29.97,WSW,243,9.0,9.0,54,0.00,,,0.00,Wunderground v.1.15,2013-03-24 20:59:00,
2013-03-24 14:09:00,66.9,49.2,29.96,SW,228,7.0,13.0,53,0.00,,,0.00,Wunderground v.1.15,2013-03-24 21:09:00,
2013-03-24 14:19:00,66.4,49.2,29.96,West,267,8.0,8.0,54,0.00,,,0.00,Wunderground v.1.15,2013-03-24 21:19:00,
2013-03-24 14:29:00,66.6,49.4,29.96,West,265,7.0,13.0,54,0.00,,,0.00,Wunderground v.1.15,2013-03-24 21:29:00,
2013-03-24 14:39:00,66.8,50.1,29.95,SW,225,6.0,14.0,55,0.00,,,0.00,Wunderground v.1.15,2013-03-24 21:39:00,
2013-03-24 14:49:00,67.1,49.9,29.94,SW,219,7.0,7.0,54,0.00,,,0.00,Wunderground v.1.15,2013-03-24 21:49:00,
2013-03-24 14:59:00,66.9,50.2,29.94,SW,229,8.0,8.0,55,0.00,,,0.00,Wunderground v.1.15,2013-03-24 21:59:00,
2013-03-24 15:09:00,66.4,51.2,29.94,WSW,246,8.0,8.0,58,0.00,,,0.00,Wunderground v.1.15,2013-03-24 22:09:00,
2013-03-24 15:19:00,66.8,50.6,29.94,SW,231,7.0,7.0,56,0.00,,,0.00,Wunderground v.1.15,2013-03-24 22:19:00,
2013-03-24 15:29:00,67.1,50.4,29.94,WNW,286,6.0,6.0,55,0.00,,,0.00,Wunderground v.1.15,2013-03-24 22:29:00,
2013-03-24 15:39:00,67.6,48.8,29.94,WSW,254,5.0,5.0,51,0.00,,,0.00,Wunderground v.1.15,2013-03-24 22:39:00,
2013-03-24 15:49:00,67.1,48.9,29.94,WSW,247,6.0,12.0,52,0.00,,,0.00,Wunderground v.1.15,2013-03-24 22:49:00,
2013-03-24 15:59:00,66.8,47.6,29.94,SW,235,6.0,12.0,50,0.00,,,0.00,Wunderground v.1.15,2013-03-24 22:59:00,
2013-03-24 16:09:00,66.6,47.4,29.93,SW,234,7.0,7.0,50,0.00,,,0.00,Wunderground v.1.15,2013-03-24 23:09:00,
2013-03-24 16:19:00,66.4,48.2,29.93,WSW,242,7.0,12.0,52,0.00,,,0.00,Wunderground v.1.15,2013-03-24 23:19:00,
2013-03-24 16:29:00,65.8,48.7,29.93,WSW,248,7.0,7.0,54,0.00,,,0.00,Wunderground v.1.15,2013-03-24 23:29:00,
2013-03-24 16:39:00,65.2,49.1,29.92,WSW,245,7.0,7.0,56,0.00,,,0.00,Wunderground v.1.15,2013-03-24 23:39:00,
2013-03-24 16:49:00,64.7,49.6,29.92,West,281,6.0,6.0,58,0.00,,,0.00,Wunderground v.1.15,2013-03-24 23:49:00,
2013-03-24 16:59:00,64.8,49.7,29.92,West,273,5.0,12.0,58,0.00,,,0.00,Wunderground v.1.15,2013-03-24 23:59:00,
2013-03-24 17:09:00,64.3,50.1,29.91,WSW,251,5.0,5.0,60,0.00,,,0.00,Wunderground v.1.15,2013-03-25 00:09:00,
2013-03-24 17:19:00,64.3,50.1,29.91,West,260,4.0,11.0,60,0.00,,,0.00,Wunderground v.1.15,2013-03-25 00:19:00,
2013-03-24 17:29:00,64.2,50.0,29.91,WNW,288,4.0,4.0,60,0.00,,,0.00,Wunderground v.1.15,2013-03-25 00:29:00,
2013-03-24 17:40:00,64.0,50.7,29.91,WNW,296,3.0,7.0,62,0.00,,,0.00,Wunderground v.1.15,2013-03-25 00:40:00,
2013-03-24 17:49:00,63.7,50.4,29.90,WSW,256,3.0,3.0,62,0.00,,,0.00,Wunderground v.1.15,2013-03-25 00:49:00,
2013-03-24 17:59:00,63.2,50.8,29.90,WSW,257,3.0,6.0,64,0.00,,,0.00,Wunderground v.1.15,2013-03-25 00:59:00,
2013-03-24 18:09:00,62.7,50.3,29.90,West,263,3.0,9.0,64,0.00,,,0.00,Wunderground v.1.15,2013-03-25 01:09:00,
2013-03-24 18:19:00,62.7,50.8,29.90,West,263,2.0,6.0,65,0.00,,,0.00,Wunderground v.1.15,2013-03-25 01:19:00,
2013-03-24 18:29:00,62.3,50.4,29.90,WSW,255,2.0,6.0,65,0.00,,,0.00,Wunderground v.1.15,2013-03-25 01:29:00,
2013-03-24 18:39:00,62.1,50.2,29.90,WSW,255,0.0,6.0,65,0.00,,,0.00,Wunderground v.1.15,2013-03-25 01:39:00,
2013-03-24 18:49:00,61.3,49.4,29.90,WSW,255,2.0,6.0,65,0.00,,,0.00,Wunderground v.1.15,2013-03-25 01:49:00,
2013-03-24 18:59:00,60.5,49.1,29.90,WSW,255,1.0,4.0,66,0.00,,,0.00,Wunderground v.1.15,2013-03-25 01:59:00,
2013-03-24 19:09:00,59.9,48.9,29.90,WSW,255,2.0,2.0,67,0.00,,,0.00,Wunderground v.1.15,2013-03-25 02:09:00,
2013-03-24 19:19:00,59.6,49.0,29.90,WSW,255,0.0,5.0,68,0.00,,,0.00,Wunderground v.1.15,2013-03-25 02:19:00,
2013-03-24 19:29:00,59.5,48.5,29.90,WSW,255,1.0,2.0,67,0.00,,,0.00,Wunderground v.1.15,2013-03-25 02:29:00,
2013-03-24 19:39:00,59.2,47.0,29.90,West,269,2.0,4.0,64,0.00,,,0.00,Wunderground v.1.15,2013-03-25 02:39:00,
2013-03-24 19:49:00,59.2,46.6,29.90,West,269,1.0,5.0,63,0.00,,,0.00,Wunderground v.1.15,2013-03-25 02:49:00,
2013-03-24 19:59:00,58.9,45.9,29.90,West,269,1.0,1.0,62,0.00,,,0.00,Wunderground v.1.15,2013-03-25 02:59:00,
2013-03-24 20:09:00,58.7,47.0,29.90,West,269,0.0,6.0,65,0.00,,,0.00,Wunderground v.1.15,2013-03-25 03:09:00,
2013-03-24 20:19:00,58.4,48.3,29.90,West,269,1.0,3.0,69,0.00,,,0.00,Wunderground v.1.15,2013-03-25 03:19:00,
2013-03-24 20:39:00,58.0,48.6,29.90,West,269,1.0,6.0,71,0.00,,,0.00,Wunderground v.1.15,2013-03-25 03:39:00,
2013-03-24 20:59:00,57.6,49.4,29.91,West,269,1.0,6.0,74,0.00,,,0.00,Wunderground v.1.15,2013-03-25 03:59:00,
2013-03-24 21:09:00,57.3,49.4,29.91,West,269,1.0,1.0,75,0.00,,,0.00,Wunderground v.1.15,2013-03-25 04:09:00,
2013-03-24 21:19:00,57.2,49.7,29.91,West,269,0.0,3.0,76,0.00,,,0.00,Wunderground v.1.15,2013-03-25 04:19:00,
2013-03-24 21:29:00,57.0,49.9,29.91,West,269,1.0,1.0,77,0.00,,,0.00,Wunderground v.1.15,2013-03-25 04:29:00,
2013-03-24 21:49:00,56.6,50.8,29.91,West,269,1.0,1.0,81,0.00,,,0.00,Wunderground v.1.15,2013-03-25 04:49:00,
2013-03-24 22:09:00,56.0,50.6,29.92,West,269,0.0,3.0,82,0.00,,,0.00,Wunderground v.1.15,2013-03-25 05:09:00,
2013-03-24 22:19:00,55.9,50.8,29.92,West,269,1.0,1.0,83,0.00,,,0.00,Wunderground v.1.15,2013-03-25 05:19:00,
2013-03-24 22:29:00,55.7,50.3,29.92,West,272,2.0,4.0,82,0.00,,,0.00,Wunderground v.1.15,2013-03-25 05:29:00,
2013-03-24 22:39:00,55.3,49.6,29.92,West,273,2.0,4.0,81,0.00,,,0.00,Wunderground v.1.15,2013-03-25 05:39:00,
2013-03-24 22:49:00,54.8,48.7,29.92,West,273,2.0,5.0,80,0.00,,,0.00,Wunderground v.1.15,2013-03-25 05:49:00,
2013-03-24 22:59:00,54.5,48.1,29.92,West,273,1.0,1.0,79,0.00,,,0.00,Wunderground v.1.15,2013-03-25 05:59:00,
2013-03-24 23:09:00,54.2,47.8,29.92,West,273,0.0,3.0,79,0.00,,,0.00,Wunderground v.1.15,2013-03-25 06:09:00,
2013-03-24 23:19:00,53.6,47.6,29.92,West,273,0.0,3.0,80,0.00,,,0.00,Wunderground v.1.15,2013-03-25 06:19:00,
2013-03-24 23:29:00,53.1,47.1,29.92,West,273,0.0,0.0,80,0.00,,,0.00,Wunderground v.1.15,2013-03-25 06:29:00,
2013-03-24 23:39:00,52.6,46.6,29.92,West,273,0.0,2.0,80,0.00,,,0.00,Wunderground v.1.15,2013-03-25 06:39:00,
2013-03-24 23:49:00,52.5,46.8,29.92,West,273,0.0,1.0,81,0.00,,,0.00,Wunderground v.1.15,2013-03-25 06:49:00,
2013-03-24 23:59:00,52.2,46.5,29.92,West,273,0.0,0.0,81,0.00,,,0.00,Wunderground v.1.15,2013-03-25 06:59:00,